Weather History for Dover AFB, DE

Change the Weather History Date:

Sunday, April 20, 2014

  Actual Average Record
Temperature  
Mean Temperature 48 °F -  
Max Temperature 55 °F 66 °F 89 °F (1976)
Min Temperature 40 °F 45 °F 32 °F (1983)
Degree Days  
Heating Degree Days 16    
Moisture  
Dew Point 35 °F    
Average Humidity 62    
Maximum Humidity 100    
Minimum Humidity 39    
Precipitation  
Precipitation 0.00 in - - ()
Sea Level Pressure  
Sea Level Pressure 30.35 in    
Wind  
Wind Speed 11 mph (ENE)    
Max Wind Speed 20 mph    
Max Gust Speed 26 mph    
Visibility 10 miles    
Events      
Averages and records for this station are not official NWS values.
T = Trace of Precipitation, MM = Missing Value Source: NWS Daily Summary

Daily Weather History Graph

Daily Weather History Graph

Search for Another Location

Airport:

Trip Planner

Search our weather history database for the weather conditions in past years. The results will help you decide how hot, cold, wet, or windy it might be!

Date:

Astronomy

Apr. 20, 2014 Rise Set
Actual Time 6:18 AM EDT 7:44 PM EDT
Civil Twilight 5:50 AM EDT 8:12 PM EDT
Nautical Twilight 5:16 AM EDT 8:45 PM EDT
Astronomical Twilight 4:41 AM EDT 9:21 PM EDT
Moon 12:20 AM EDT (4/20) 10:36 AM EDT (4/20)
Length of Visible Light 14h 22m
Length of Day
13h 26m
Waning Gibbous, 69% of the Moon is Illuminated
Apr 20
Waning Gibbous
Apr 22
Last Quarter
Apr 29
New
May 6
First Quarter
May 14
Full

Hourly Weather History & Observations

Time (EDT) Temp. Windchill Dew Point Humidity Pressure Visibility Wind Dir Wind Speed Gust Speed Precip Events Conditions
12:58 AM 44.4 °F 40.5 °F 43.9 °F 98% 30.29 in 10.0 mi NNW 6.9 mph - N/A   Clear
1:58 AM 42.6 °F 39.0 °F 42.6 °F 100% 30.29 in 10.0 mi North 5.8 mph - N/A   Clear
2:58 AM 42.8 °F 38.0 °F 42.8 °F 100% 30.29 in 10.0 mi North 8.1 mph - N/A   Clear
3:58 AM 45.3 °F 40.6 °F 45.3 °F 100% 30.31 in 10.0 mi NNE 9.2 mph - N/A   Clear
4:58 AM 46.8 °F - 40.1 °F 78% 30.32 in 10.0 mi NNE 8.1 mph - N/A   Clear
5:58 AM 48.6 °F - 35.1 °F 60% 30.31 in 10.0 mi NE 16.1 mph - N/A   Clear
6:58 AM 48.0 °F - 39.6 °F 73% 30.34 in 10.0 mi ENE 18.4 mph - N/A   Clear
7:58 AM 48.9 °F - 37.0 °F 64% 30.37 in 10.0 mi ENE 19.6 mph 25.3 mph N/A   Clear
8:58 AM 50.4 °F - 34.3 °F 54% 30.40 in 10.0 mi ENE 16.1 mph 26.5 mph N/A   Clear
9:58 AM 53.2 °F - 35.4 °F 51% 30.42 in 10.0 mi ENE 17.3 mph - N/A   Partly Cloudy
10:58 AM 54.1 °F - 36.5 °F 51% 30.43 in 10.0 mi East 12.7 mph - N/A   Partly Cloudy
11:58 AM 54.9 °F - 37.8 °F 53% 30.44 in 10.0 mi East 17.3 mph - N/A   Partly Cloudy
12:58 PM 54.9 °F - 37.4 °F 52% 30.42 in 10.0 mi East 13.8 mph 20.7 mph N/A   Mostly Cloudy
1:58 PM 55.0 °F - 35.8 °F 48% 30.40 in 10.0 mi East 12.7 mph 19.6 mph N/A   Scattered Clouds
2:58 PM 54.3 °F - 35.2 °F 49% 30.38 in 10.0 mi East 15.0 mph 21.9 mph N/A   Partly Cloudy
3:58 PM 54.0 °F - 35.6 °F 50% 30.37 in 10.0 mi East 16.1 mph - N/A   Partly Cloudy
4:58 PM 53.2 °F - 32.5 °F 45% 30.36 in 10.0 mi East 10.4 mph 23.0 mph N/A   Clear
5:58 PM 51.3 °F - 33.8 °F 51% 30.36 in 10.0 mi East 15.0 mph 19.6 mph N/A   Clear
6:58 PM 50.2 °F - 34.2 °F 54% 30.34 in 10.0 mi East 9.2 mph - N/A   Clear
7:58 PM 47.5 °F - 29.5 °F 50% 30.34 in 10.0 mi ENE 6.9 mph - N/A   Clear
8:58 PM 45.7 °F 41.0 °F 28.0 °F 50% 30.33 in 10.0 mi NE 9.2 mph - N/A   Clear
9:58 PM 45.0 °F 40.1 °F 21.4 °F 39% 30.32 in 10.0 mi NE 9.2 mph - N/A   Clear
10:58 PM 43.7 °F 40.3 °F 25.2 °F 48% 30.30 in 10.0 mi NNE 5.8 mph - N/A   Clear
11:58 PM 40.6 °F 36.0 °F 29.3 °F 64% 30.28 in 10.0 mi NE 6.9 mph - N/A   Clear